(170947) = 2005 BA4 = 2000 FO71

Discovered at Anderson Mesa on 2005-01-16 by LONEOS.

Orbit

Orbit type: Main Belt

Note: WebGL enabled browser required.

epoch2024-03-31.0
epoch JD2460400.5
perihelion date2023-09-13.15894
perihelion JD2460200.65895
argument of perihelion (°)272.31762
ascending node (°)318.74303
inclination (°)3.90336
eccentricity0.1346408
perihelion distance (AU)2.7695591
Tisserand w.r.t. Jupiter3.2
ΔV w.r.t. Earth (km/sec)10.4
semimajor axis (AU)3.2004734
mean anomaly (°)34.40071
mean daily motion (°/day)0.17214040
aphelion distance (AU)3.631
period (years)5.73
P-vector [x]-0.62696895
P-vector [y]-0.68497352
P-vector [z]-0.37110809
Q-vector [x]0.77774982
Q-vector [y]-0.57779481
Q-vector [z]-0.24750428
absolute magnitude15.27
phase slope0.15
uncertainty0
referenceE2024-H23
observations used602
oppositions19
arc length (days)10085
first opposition used1996
last opposition used2024
residual rms (arc-secs)0.75
perturbers coarse indicatorM-v
perturbers precise indicator003Ek
first observation date used1996-09-06.0
last observation date used2024-04-17.0
computer nameMPCLINUX
JD of orbit computation2456966.762104
perihelion JD uncertainty (days)1.0962E-04
argument of perihelion uncertainty (°)5.5631E-05
ascending node uncertainty (°)5.2857E-05
inclination uncertainty (°)4.3991E-06
eccentricity uncertainty 3.6821E-08
perihelion distance uncertainty (AU)1.0741E-07
Minimum Orbit Intersection Distances (in AU)
for orbit epoch: 2460200.5, reference: E2023-T87
Mercury2.31134
Venus2.04965
Earth1.76186
Mars1.20219
Jupiter1.4019
Saturn5.49954
Uranus15.3391
Neptune26.2431

Observations

611 total observations over interval: 1996 09 06.25989 – 2023 06 25.203330
These data are available for download (format description).

Date (UT) J2000 RA J2000 Dec Magn Location Ref
1996 09 06.25989 23 05 32.17 -03 06 23.4   691 – Steward Observatory, Kitt Peak-Spacewatch MPS 178492
1996 09 06.28088 23 05 31.23 -03 06 28.1 19.9 V 691 – Steward Observatory, Kitt Peak-Spacewatch MPS 178492
1996 09 06.30192 23 05 30.26 -03 06 32.8   691 – Steward Observatory, Kitt Peak-Spacewatch MPS 178492
2000 03 26.33668 11 55 59.31 -04 01 32.4 19.4 R 699 – Lowell Observatory-LONEOS MPS 16975
2000 03 26.35724 11 55 58.24 -04 01 26.2   699 – Lowell Observatory-LONEOS MPS 16975
2000 03 26.37785 11 55 57.34 -04 01 22.2   699 – Lowell Observatory-LONEOS MPS 16975
2000 03 26.39846 11 55 56.35 -04 01 16.1   699 – Lowell Observatory-LONEOS MPS 16975
2000 04 04.32672 11 49 20.88 -03 25 04.8 18.9   704 – Lincoln Laboratory ETS, New Mexico MPS 16975
2000 04 04.34104 11 49 20.28 -03 24 59.4 18.4   704 – Lincoln Laboratory ETS, New Mexico MPS 16975
2000 04 04.35535 11 49 19.67 -03 24 57.0 18.7   704 – Lincoln Laboratory ETS, New Mexico MPS 16975
2000 04 04.36966 11 49 19.13 -03 24 52.4 19.1   704 – Lincoln Laboratory ETS, New Mexico MPS 16975
2003 11 20.34385 04 00 52.96 +25 57 34.9 20.7 V 691 – Steward Observatory, Kitt Peak-Spacewatch MPS 139346
2003 11 20.37438 04 00 51.38 +25 57 30.5 21.0 V 691 – Steward Observatory, Kitt Peak-Spacewatch MPS 139346
2003 11 20.40420 04 00 49.83 +25 57 26.3 20.6 V 691 – Steward Observatory, Kitt Peak-Spacewatch MPS 139346
2003 12 28.10070 03 33 46.89 +24 09 18.8 22.3 V 691 – Steward Observatory, Kitt Peak-Spacewatch MPS 138898
2003 12 28.12757 03 33 46.08 +24 09 14.4 21.5 V 691 – Steward Observatory, Kitt Peak-Spacewatch MPS 138898
2003 12 28.15923 03 33 45.20 +24 09 09.5 21.5 V 691 – Steward Observatory, Kitt Peak-Spacewatch MPS 138898
2004 12 11.428787 08 48 45.244 +19 49 08.36 20.83 V 645 – Apache Point-Sloan Digital Sky Survey MPS 390128
2004 12 11.432259 08 48 45.194 +19 49 08.48 21.46   645 – Apache Point-Sloan Digital Sky Survey MPS 390128
2004 12 13.382707 08 48 17.860 +19 50 24.66 20.82 V 645 – Apache Point-Sloan Digital Sky Survey MPS 390128
2004 12 13.386179 08 48 17.791 +19 50 24.63 21.51   645 – Apache Point-Sloan Digital Sky Survey MPS 390128
2004 12 15.339937 08 47 45.272 +19 51 58.11 20.83 V 645 – Apache Point-Sloan Digital Sky Survey MPS 390128
2004 12 15.343409 08 47 45.209 +19 51 58.24 21.49   645 – Apache Point-Sloan Digital Sky Survey MPS 390128
2005 01 06.36453 08 36 09.89 +20 25 32.6 19.7   704 – Lincoln Laboratory ETS, New Mexico MPS 130779
2005 01 06.39284 08 36 08.68 +20 25 36.9 19.9   704 – Lincoln Laboratory ETS, New Mexico MPS 130779
2005 01 06.40608 08 36 08.11 +20 25 37.2 19.6   704 – Lincoln Laboratory ETS, New Mexico MPS 130779
2005 01 16.24902 08 28 22.87 +20 46 05.6 19.0 R 699 – Lowell Observatory-LONEOS MPS 124866
2005 01 16.33681 08 28 18.47 +20 46 18.4   699 – Lowell Observatory-LONEOS MPS 124866
2005 01 16.38029 08 28 16.11 +20 46 22.6   699 – Lowell Observatory-LONEOS MPS 124866
2005 01 16.46366 08 28 11.88 +20 46 32.6   699 – Lowell Observatory-LONEOS MPS 124866
2005 01 17.91424 08 26 58.78 +20 49 34.1 18.7 R 246 – Klet Observatory-KLENOT MPS 130779
2005 01 17.91516 08 26 58.70 +20 49 34.6   246 – Klet Observatory-KLENOT MPS 130779
2005 01 17.91589 08 26 58.68 +20 49 34.8   246 – Klet Observatory-KLENOT MPS 130779
2005 01 17.91696 08 26 58.65 +20 49 34.6   246 – Klet Observatory-KLENOT MPS 130779
2005 01 17.91795 08 26 58.56 +20 49 34.9   246 – Klet Observatory-KLENOT MPS 130779
2005 01 17.92051 08 26 58.42 +20 49 35.1   246 – Klet Observatory-KLENOT MPS 130779
2005 01 18.33485 08 26 37.26 +20 50 27.8 19.7 V 691 – Steward Observatory, Kitt Peak-Spacewatch MPS 124866
2005 01 18.36775 08 26 35.54 +20 50 31.9 19.9 V 691 – Steward Observatory, Kitt Peak-Spacewatch MPS 124866
2005 01 18.39378 08 26 34.18 +20 50 35.0 19.9 V 691 – Steward Observatory, Kitt Peak-Spacewatch MPS 124866
2006 03 25.39573 14 03 22.22 -18 07 20.1 19.1 R 644 – Palomar Mountain/NEAT MPS 167103
2006 03 25.41603 14 03 21.56 -18 07 19.2 19.2 R 644 – Palomar Mountain/NEAT MPS 167103
2006 03 25.43632 14 03 20.90 -18 07 17.9 19.5 R 644 – Palomar Mountain/NEAT MPS 167103
2006 03 25.44111 14 03 20.75 -18 07 17.7 19.6 R 644 – Palomar Mountain/NEAT MPS 167103
2006 03 25.46511 14 03 20.01 -18 07 17.0 19.3 R 644 – Palomar Mountain/NEAT MPS 167103
2006 03 25.48783 14 03 19.22 -18 07 15.6 19.8 R 644 – Palomar Mountain/NEAT MPS 167103
2006 04 30.24817 13 37 42.21 -16 25 25.9 18.7 R 699 – Lowell Observatory-LONEOS MPS 175547
2006 04 30.27553 13 37 40.96 -16 25 18.9   699 – Lowell Observatory-LONEOS MPS 175547
2006 04 30.30293 13 37 39.72 -16 25 12.1   699 – Lowell Observatory-LONEOS MPS 175547
2006 04 30.33036 13 37 38.55 -16 25 05.9   699 – Lowell Observatory-LONEOS MPS 175547
2006 05 05.17818 13 34 12.85 -16 04 57.8 18.7 R 699 – Lowell Observatory-LONEOS MPS 170847
2006 05 05.20010 13 34 12.12 -16 04 52.3   699 – Lowell Observatory-LONEOS MPS 170847
2006 05 05.22203 13 34 11.17 -16 04 46.9   699 – Lowell Observatory-LONEOS MPS 170847
2006 05 05.24395 13 34 10.16 -16 04 41.2   699 – Lowell Observatory-LONEOS MPS 170847
2006 05 23.16935 13 24 54.38 -14 57 53.3 19.0 R 699 – Lowell Observatory-LONEOS MPS 172038
2006 05 23.19126 13 24 53.84 -14 57 48.0   699 – Lowell Observatory-LONEOS MPS 172038
2006 05 23.21315 13 24 53.44 -14 57 45.1   699 – Lowell Observatory-LONEOS MPS 172038
2006 05 23.23509 13 24 53.04 -14 57 39.2   699 – Lowell Observatory-LONEOS MPS 172038
2007 10 09.14829 20 37 38.89 -18 04 09.4 20.4 V G96 – Mt. Lemmon Survey MPS 218655
2007 10 09.15501 20 37 39.03 -18 04 08.7 20.9 V G96 – Mt. Lemmon Survey MPS 218655
2007 10 09.16179 20 37 39.14 -18 04 08.0 20.6 V G96 – Mt. Lemmon Survey MPS 218655
2007 10 09.16863 20 37 39.25 -18 04 07.2 21.0 V G96 – Mt. Lemmon Survey MPS 218655
2007 11 04.07477 20 51 31.10 -16 53 38.2 20.7 V G96 – Mt. Lemmon Survey MPS 224866
2007 11 04.08233 20 51 31.50 -16 53 37.0 20.8 V G96 – Mt. Lemmon Survey MPS 224866
2007 11 04.08984 20 51 31.78 -16 53 35.5 20.5 V G96 – Mt. Lemmon Survey MPS 224866
2007 11 04.09737 20 51 32.11 -16 53 33.1 20.7 V G96 – Mt. Lemmon Survey MPS 224866
2008 09 23.30517 01 28 02.49 +14 10 05.6 20.4 V 691 – Steward Observatory, Kitt Peak-Spacewatch MPS 257653
2008 09 23.32279 01 28 01.79 +14 10 03.0 20.5 V 691 – Steward Observatory, Kitt Peak-Spacewatch MPS 257653
2008 09 23.34042 01 28 00.99 +14 09 59.8 20.0 V 691 – Steward Observatory, Kitt Peak-Spacewatch MPS 257653
2008 10 09.17734 01 16 53.97 +13 17 51.8 20.5 V 691 – Steward Observatory, Kitt Peak-Spacewatch MPS 260188
2008 10 09.19497 01 16 53.21 +13 17 47.6 20.3 V 691 – Steward Observatory, Kitt Peak-Spacewatch MPS 260188
2008 10 09.21257 01 16 52.40 +13 17 43.9 20.0 V 691 – Steward Observatory, Kitt Peak-Spacewatch MPS 260188
2008 10 29.35627 01 02 22.30 +11 53 26.5 19.9 V G96 – Mt. Lemmon Survey MPS 262939
2008 10 29.36246 01 02 22.05 +11 53 24.6 20.0 V G96 – Mt. Lemmon Survey MPS 262939
2008 10 29.36859 01 02 21.80 +11 53 23.4 19.9 V G96 – Mt. Lemmon Survey MPS 262939
2008 10 29.37473 01 02 21.58 +11 53 21.7 20.0 V G96 – Mt. Lemmon Survey MPS 262939
2009 08 28.46142 05 14 55.72 +26 41 37.3 21.6 V 691 – Steward Observatory, Kitt Peak-Spacewatch MPS 293108
2009 08 28.47410 05 14 56.32 +26 41 38.8 21.8 V 691 – Steward Observatory, Kitt Peak-Spacewatch MPS 293108
2009 08 28.49022 05 14 57.10 +26 41 40.0 21.6 V 691 – Steward Observatory, Kitt Peak-Spacewatch MPS 293108
2009 11 23.36572 05 21 18.35 +27 52 37.0 20.1 V 691 – Steward Observatory, Kitt Peak-Spacewatch MPS 306454
2009 11 23.38355 05 21 17.51 +27 52 35.9 20.5 V 691 – Steward Observatory, Kitt Peak-Spacewatch MPS 306454
2009 11 23.40133 05 21 16.68 +27 52 35.3 20.5 V 691 – Steward Observatory, Kitt Peak-Spacewatch MPS 306454
2009 12 13.21317 05 04 22.58 +27 31 44.5 19.1 V G96 – Mt. Lemmon Survey MPS 308429
2009 12 13.21733 05 04 22.44 +27 31 44.2 19.1 V G96 – Mt. Lemmon Survey MPS 308429
2009 12 13.22135 05 04 22.15 +27 31 44.2 19.6 V G96 – Mt. Lemmon Survey MPS 308429
2009 12 13.22538 05 04 21.93 +27 31 43.7 19.6 V G96 – Mt. Lemmon Survey MPS 308429
2010 01 08.17327 04 44 42.18 +26 39 04.4 18.7 V G96 – Mt. Lemmon Survey MPS 310030
2010 01 08.18121 04 44 41.92 +26 39 02.8 19.9 V G96 – Mt. Lemmon Survey MPS 310030
